This is the latest recevied weather packets stored in our database for station/object KI4NG. If no packets are shown the sender has not sent any weather packets the latest 1 day(s).
| Time | Temp. | Humidity | Pressure | Rain* | Wind** | Luminosity | Snow |
|---|---|---|---|---|---|---|---|
| 1778046220 | 16.11° C | 86% | 1010.2 hPa | 0 mm | 2.68 m/s, 153° | 0 W/m² | - |
| 1778045916 | 16.11° C | 88% | 1010.2 hPa | 0 mm | 2.24 m/s, 193° | 0 W/m² | - |
| 1778045615 | 15.56° C | 90% | 1010.3 hPa | 0 mm | 2.24 m/s, 184° | 0 W/m² | - |
| 1778045313 | 15.56° C | 90% | 1010.1 hPa | 0 mm | 2.24 m/s, 180° | 0 W/m² | - |
| 1778045011 | 15° C | 92% | 1010.5 hPa | 0 mm | 1.34 m/s, 218° | 0 W/m² | - |
| 1778044709 | 15.56° C | 92% | 1010.4 hPa | 0 mm | 1.79 m/s, 179° | 0 W/m² | - |
| 1778044405 | 15° C | 92% | 1010.5 hPa | 0 mm | 1.34 m/s, 187° | 0 W/m² | - |
| 1778044102 | 15° C | 92% | 1010.6 hPa | 0 mm | 1.79 m/s, 187° | 0 W/m² | - |
| 1778043799 | 15° C | 93% | 1010.7 hPa | 0 mm | 0.89 m/s, 151° | 0 W/m² | - |
| 1778043496 | 15° C | 93% | 1010.6 hPa | 0 mm | 1.79 m/s, 182° | 0 W/m² | - |
| 1778043193 | 15° C | 94% | 1010.7 hPa | 0 mm | 3.13 m/s, 190° | 0 W/m² | - |
| 1778042890 | 14.44° C | 94% | 1010.9 hPa | 0 mm | 2.68 m/s, 174° | 0 W/m² | - |
| 1778042588 | 14.44° C | 95% | 1010.8 hPa | 0 mm | 2.68 m/s, 161° | 0 W/m² | - |
| 1778042284 | 13.89° C | 97% | 1010.9 hPa | 0 mm | 1.34 m/s, 176° | 0 W/m² | - |
| 1778041982 | 13.89° C | 98% | 1010.9 hPa | 0 mm | 2.24 m/s, 161° | 0 W/m² | - |
| 1778041681 | 13.89° C | 99% | 1010.9 hPa | 0 mm | 2.24 m/s, 199° | 0 W/m² | - |
| 1778041379 | 13.89° C | 99% | 1010.8 hPa | 0 mm | 2.24 m/s, 211° | 0 W/m² | - |
| 1778041077 | 13.89° C | 99% | 1010.7 hPa | 0 mm | 2.24 m/s, 191° | 0 W/m² | - |
| 1778040774 | 13.33° C | 99% | 1010.8 hPa | 0 mm | 0.89 m/s, 167° | 0 W/m² | - |
| 1778040471 | 13.33° C | 99% | 1010.6 hPa | 0 mm | 2.24 m/s, 192° | 0 W/m² | - |
| 1778040168 | 13.33° C | 99% | 1011 hPa | 0 mm | 2.24 m/s, 209° | 0 W/m² | - |
| 1778039865 | 13.33° C | 99% | 1010.7 hPa | 0 mm | 1.34 m/s, 203° | 0 W/m² | - |
| 1778039562 | 13.33° C | 99% | 1010.7 hPa | 0 mm | 1.79 m/s, 133° | 0 W/m² | - |
| 1778039259 | 13.33° C | 99% | 1010.8 hPa | 0 mm | 3.13 m/s, 201° | 0 W/m² | - |
| 1778038956 | 13.33° C | 99% | 1010.9 hPa | 0 mm | 1.79 m/s, 186° | 0 W/m² | - |
* Rain latest hour (hover to see other rain measurements)
** Current wind speed in m/s (hover to see current wind gust speed)